TimeCDT,TemperatureF,Dew PointF,Humidity,Sea Level PressureIn,VisibilityMPH,Wind Direction,Wind SpeedMPH,Gust SpeedMPH,PrecipitationIn,Events,Conditions,WindDirDegrees,DateUTC
12:04 AM,26.6,24.8,93,29.94,1.0,ENE,11.5,-,0.01,Snow,Light Snow,60,2013-04-12 05:04:00
12:17 AM,26.6,24.8,93,29.95,1.0,ENE,9.2,17.3,0.02,Snow,Light Snow,60,2013-04-12 05:17:00
12:40 AM,26.6,24.8,93,29.94,1.0,NE,9.2,-,0.03,Snow,Light Snow,50,2013-04-12 05:40:00
12:55 AM,27.0,25.0,92,29.99,0.8,ENE,11.5,-,0.04,Snow,Light Snow,60,2013-04-12 05:55:00
1:15 AM,26.6,24.8,93,29.93,0.8,ENE,6.9,-,0.02,Snow,Light Snow,60,2013-04-12 06:15:00
1:32 AM,26.6,24.8,93,29.93,1.0,ENE,5.8,-,0.03,Snow,Light Snow,60,2013-04-12 06:32:00
1:55 AM,27.0,24.1,89,29.99,1.0,NE,8.1,-,0.05,Snow,Light Snow,50,2013-04-12 06:55:00
2:44 AM,26.6,24.8,93,29.91,0.8,ENE,10.4,-,0.02,Snow,Light Snow,60,2013-04-12 07:44:00
2:55 AM,26.1,24.1,92,29.97,1.0,ENE,9.2,-,0.03,Snow,Light Snow,60,2013-04-12 07:55:00
3:12 AM,26.6,24.8,93,29.90,1.2,NE,10.4,19.6,0.01,Snow,Light Snow,50,2013-04-12 08:12:00
3:32 AM,26.6,23.0,86,29.89,1.2,NE,16.1,21.9,0.02,Snow,Light Snow,50,2013-04-12 08:32:00
3:55 AM,26.1,23.0,88,29.94,1.0,NE,16.1,25.3,0.03,Snow,Light Snow,40,2013-04-12 08:55:00
4:55 AM,25.0,23.0,92,29.93,0.8,NE,11.5,19.6,0.02,Snow,Light Snow,50,2013-04-12 09:55:00
5:06 AM,24.8,23.0,93,29.87,0.8,NE,10.4,-,0.01,Snow,Light Snow,50,2013-04-12 10:06:00
5:55 AM,25.0,23.0,92,29.93,0.5,NE,9.2,-,0.08,Fog-Snow,Snow,50,2013-04-12 10:55:00
6:28 AM,24.8,21.2,86,29.86,0.8,NE,9.2,-,0.04,Snow,Light Snow,50,2013-04-12 11:28:00
6:55 AM,24.1,21.9,91,29.92,0.2,NE,11.5,-,0.06,Fog-Snow,Snow,50,2013-04-12 11:55:00
7:12 AM,24.8,21.2,86,29.86,0.5,NE,12.7,18.4,0.01,Fog-Snow,Light Snow,50,2013-04-12 12:12:00
7:35 AM,24.8,21.2,86,29.86,0.5,NE,9.2,21.9,0.02,Fog-Snow,Light Snow,50,2013-04-12 12:35:00
7:43 AM,24.8,21.2,86,29.86,0.5,NE,10.4,-,0.02,Fog-Snow,Snow,50,2013-04-12 12:43:00
7:55 AM,24.1,21.0,88,29.92,0.5,NE,11.5,17.3,0.03,Fog-Snow,Light Snow,50,2013-04-12 12:55:00
8:10 AM,24.8,21.2,86,29.86,0.8,NE,11.5,17.3,0.00,Snow,Light Snow,50,2013-04-12 13:10:00
8:33 AM,24.8,21.2,86,29.86,0.5,ENE,10.4,20.7,0.01,Fog-Snow,Snow,60,2013-04-12 13:33:00
8:55 AM,24.1,21.0,88,29.92,0.8,ENE,9.2,-,0.02,Snow,Light Snow,60,2013-04-12 13:55:00
9:06 AM,24.8,21.2,86,29.86,0.8,ENE,5.8,-,0.01,Snow,Light Snow,60,2013-04-12 14:06:00
9:13 AM,24.8,21.2,86,29.86,1.0,NE,6.9,-,0.01,Snow,Light Snow,50,2013-04-12 14:13:00
9:23 AM,24.8,21.2,86,29.86,0.8,NE,10.4,-,0.01,Snow,Light Snow,40,2013-04-12 14:23:00
9:55 AM,24.1,19.9,84,29.92,1.0,ENE,9.2,-,0.02,Snow,Light Snow,60,2013-04-12 14:55:00
10:09 AM,24.8,21.2,86,29.87,0.8,ENE,9.2,-,0.00,Snow,Light Snow,70,2013-04-12 15:09:00
10:16 AM,24.8,21.2,86,29.87,1.0,NE,10.4,-,0.01,Snow,Light Snow,50,2013-04-12 15:16:00
10:28 AM,24.8,21.2,86,29.87,0.8,NE,8.1,-,0.01,Snow,Light Snow,50,2013-04-12 15:28:00
10:38 AM,24.8,21.2,86,29.87,1.2,East,12.7,18.4,0.01,Snow,Light Snow,80,2013-04-12 15:38:00
10:55 AM,26.1,19.9,78,29.94,2.0,ENE,11.5,-,0.01,Snow,Light Snow,60,2013-04-12 15:55:00
11:12 AM,24.8,19.4,80,29.88,3.0,NE,12.7,18.4,0.00,Snow,Light Snow,50,2013-04-12 16:12:00
11:21 AM,26.6,19.4,74,29.88,4.0,NE,9.2,-,0.01,Snow,Light Snow,40,2013-04-12 16:21:00
11:55 AM,27.0,21.0,78,29.93,4.0,NE,10.4,-,0.01,Snow,Light Snow,40,2013-04-12 16:55:00
12:46 PM,28.4,19.4,69,29.86,6.0,NE,11.5,-,0.00,Snow,Light Snow,50,2013-04-12 17:46:00
12:55 PM,27.0,21.0,78,29.92,3.0,NE,11.5,-,0.00,Snow,Light Snow,40,2013-04-12 17:55:00
12:57 PM,26.6,21.2,80,29.86,2.5,NE,10.4,-,0.00,Snow,Light Snow,40,2013-04-12 17:57:00
1:05 PM,28.4,21.2,74,29.86,2.5,NE,11.5,-,0.00,Snow,Light Snow,40,2013-04-12 18:05:00
1:13 PM,28.4,19.4,69,29.86,4.0,NE,9.2,-,0.00,Snow,Light Snow,50,2013-04-12 18:13:00
1:55 PM,28.9,21.0,72,29.91,5.0,North,8.1,-,0.00,Snow,Light Snow,10,2013-04-12 18:55:00
2:55 PM,30.0,19.9,66,29.90,10.0,NE,8.1,-,0.00,,Overcast,40,2013-04-12 19:55:00
3:20 PM,30.2,21.2,69,29.84,10.0,NE,11.5,-,N/A,,Overcast,50,2013-04-12 20:20:00
3:55 PM,30.0,21.0,69,29.89,7.0,NE,9.2,-,0.00,Snow,Light Snow,40,2013-04-12 20:55:00
4:04 PM,30.2,23.0,75,29.84,5.0,ENE,8.1,-,0.00,Snow,Light Snow,60,2013-04-12 21:04:00
4:34 PM,30.2,21.2,69,29.84,7.0,ENE,11.5,-,0.00,Snow,Light Snow,60,2013-04-12 21:34:00
4:55 PM,30.0,21.9,72,29.90,10.0,NE,11.5,16.1,0.00,,Overcast,40,2013-04-12 21:55:00
5:11 PM,30.2,23.0,75,29.84,2.0,NE,8.1,-,0.00,Snow,Light Snow,40,2013-04-12 22:11:00
5:15 PM,30.2,24.8,80,29.84,1.8,NE,11.5,-,0.00,Snow,Light Snow,50,2013-04-12 22:15:00
5:25 PM,28.4,24.8,86,29.85,0.8,NE,11.5,-,0.01,Snow,Light Snow,40,2013-04-12 22:25:00
5:32 PM,28.4,24.8,86,29.85,1.8,NE,8.1,-,0.01,Snow,Light Snow,50,2013-04-12 22:32:00
5:48 PM,28.4,23.0,80,29.85,3.0,NE,10.4,-,0.01,Snow,Light Snow,50,2013-04-12 22:48:00
5:55 PM,28.9,23.0,78,29.91,3.0,NE,9.2,-,0.01,Snow,Light Snow,50,2013-04-12 22:55:00
6:01 PM,28.4,23.0,80,29.85,1.8,NE,12.7,18.4,0.00,Snow,Light Snow,50,2013-04-12 23:01:00
6:23 PM,28.4,23.0,80,29.85,2.0,NE,15.0,20.7,0.00,Snow,Light Snow,50,2013-04-12 23:23:00
6:31 PM,28.4,23.0,80,29.86,3.0,NE,12.7,19.6,0.00,Snow,Light Snow,50,2013-04-12 23:31:00
6:37 PM,26.6,23.0,86,29.86,1.8,NE,11.5,20.7,0.00,Snow,Light Snow,50,2013-04-12 23:37:00
6:55 PM,27.0,23.0,85,29.92,1.2,ENE,11.5,19.6,0.00,Snow,Light Snow,60,2013-04-12 23:55:00
7:18 PM,26.6,21.2,80,29.87,2.5,ENE,12.7,-,0.00,Snow,Light Snow,60,2013-04-13 00:18:00
7:26 PM,26.6,21.2,80,29.87,4.0,ENE,15.0,27.6,0.01,Snow,Light Snow,60,2013-04-13 00:26:00
7:39 PM,24.8,21.2,86,29.87,2.0,ENE,10.4,17.3,0.01,Snow,Light Snow,60,2013-04-13 00:39:00
7:46 PM,24.8,21.2,86,29.87,1.5,ENE,13.8,20.7,0.01,Snow,Light Snow,60,2013-04-13 00:46:00
7:53 PM,24.8,21.2,86,29.87,2.0,ENE,9.2,20.7,0.01,Snow,Light Snow,60,2013-04-13 00:53:00
7:55 PM,25.0,21.0,85,29.93,2.0,ENE,11.5,20.7,0.01,Snow,Light Snow,60,2013-04-13 00:55:00
8:10 PM,24.8,19.4,80,29.87,3.0,ENE,11.5,20.7,0.00,Snow,Light Snow,60,2013-04-13 01:10:00
8:55 PM,24.1,19.9,84,29.94,5.0,ENE,10.4,-,0.00,Snow,Light Snow,70,2013-04-13 01:55:00
9:51 PM,24.8,19.4,80,29.89,2.5,ENE,5.8,-,0.00,Snow,Light Snow,70,2013-04-13 02:51:00
9:55 PM,24.1,19.9,84,29.95,2.5,ENE,8.1,-,0.00,Snow,Light Snow,70,2013-04-13 02:55:00
10:04 PM,24.8,19.4,80,29.89,2.0,ENE,5.8,-,0.00,Snow,Light Snow,60,2013-04-13 03:04:00
10:14 PM,24.8,21.2,86,29.89,1.5,NE,3.5,-,0.00,Snow,Light Snow,50,2013-04-13 03:14:00
10:28 PM,24.8,21.2,86,29.88,1.0,Calm,Calm,-,0.01,Snow,Light Snow,0,2013-04-13 03:28:00
10:55 PM,24.1,21.0,88,29.94,1.8,NNE,5.8,-,0.02,Snow,Light Snow,30,2013-04-13 03:55:00
11:02 PM,24.8,21.2,86,29.88,2.5,NNE,6.9,-,0.00,Snow,Light Snow,30,2013-04-13 04:02:00
11:09 PM,24.8,21.2,86,29.88,2.5,NNE,4.6,-,0.00,Snow,Light Snow,20,2013-04-13 04:09:00
11:55 PM,24.1,21.0,88,29.93,3.0,NNE,4.6,-,0.01,Snow,Light Snow,20,2013-04-13 04:55:00